[[{"header":{"parameterUnit":"m.s-1","parameterCategory":1,"la1":30.2991,"la2":30.254,"lo1":-89.0895,"lo2":-89.0444,"dy":0.0017,"dx":0.0017,"nx":28,"ny":28,"refTime":"2026-02-17T03:00:00:Z","depth":0,"parameterNumber":2,"parameterNumberName":"U-component_of_WINDS"},"data":[0,0,0,0,0,0,0,0,0,0,0,0,0,0,0,0,0,0,0,0,0,0,0,0,0,0,0,0,0,0,0,0,0,0,0,0,0,0,0,0,0,0,0,0,0,0,0,0,0,0,0,0,0,0,0,0,0,0,0.1088,0.1088,0,0.1141,0.1141,0.1142,0.1214,0.1216,0.1217,0.1218,0.1268,0.1268,0.1268,0,0,0,0,0,0,0,0,0,0,0,0,0,0.1046,0.1046,0.1088,0.1088,0.1089,0.1141,0.1141,0.1142,0.1214,0.1216,0.1217,0.1219,0.1268,0.1268,0.1268,0,0,0,0,0,0,0,0,0,0,0,0,0,0.1078,0.1046,0.1087,0.1131,0.1136,0.114,0.1141,0.1142,0.1214,0.1216,0.1218,0.1219,0.1268,0.1268,0.1268,0.1233,0,0,0.1269,0.1269,0,0,0,0,0,0,0,0,0.1076,0.1079,0.1124,0.1128,0.1133,0.1173,0.1145,0.1172,0.1213,0.1184,0.1218,0.122,0.1234,0.1237,0.1243,0.1235,0.1237,0.1269,0.1269,0.1269,0.1269,0,0,0,0,0,0,0,0.1074,0.1077,0.1108,0.1125,0.113,0.1147,0.1154,0.115,0.1198,0.1187,0.1192,0.1198,0.1237,0.1243,0.1245,0.1238,0.1269,0.1269,0.1269,0.1269,0.1207,0.1205,0,0,0,0,0,0,0.1065,0.1075,0.1107,0.111,0.1109,0.1147,0.1154,0.1158,0.1198,0.1206,0.1196,0.1201,0.1241,0.1245,0.1247,0.1211,0.1269,0.1269,0.127,0.1209,0.1206,0.1204,0,0,0,0,0,0,0.1064,0.1068,0.1105,0.1094,0.11,0.1145,0.115,0.1158,0.1164,0.1205,0.1214,0.1193,0.1243,0.1247,0.1237,0.1214,0.127,0.127,0.1211,0.1208,0.1205,0.1137,0,0,0,0,0,0,0.1063,0.1067,0.1054,0.1093,0.1101,0.1094,0.1148,0.1158,0.1165,0.1172,0.1205,0.1212,0.1245,0.1236,0.1237,0.1215,0.127,0.1213,0.1209,0.1206,0.1142,0.1133,0.1125,0,0,0,0,0,0.1061,0.1031,0.1053,0.1057,0.1086,0.1093,0.1097,0.1136,0.1163,0.1151,0.1178,0.1211,0.1216,0.1234,0.1236,0.1214,0.1215,0.121,0.1207,0.1146,0.1135,0.1125,0,0,0,0,0,0,0.0986,0.1037,0.1062,0.1044,0.1064,0.1105,0.1091,0.1122,0.1133,0.1139,0.1186,0.1193,0.1178,0.1194,0.1214,0.1184,0.122,0.1216,0.1174,0.1163,0.1155,0.1152,0.127,0,0,0,0,0,0.0967,0.097,0.1014,0.0993,0.1002,0.1045,0.1049,0.1078,0.11,0.1108,0.1134,0.1152,0.1159,0.1161,0.1169,0.1144,0.1154,0.113,0.1121,0.1114,0.1111,0.1102,0.1093,0.1191,0.1191,0.1191,0,0,0.0928,0.0957,0.0955,0.0979,0.0998,0.1,0.1051,0.1049,0.1051,0.1107,0.1101,0.112,0.1144,0.1128,0.1122,0.1142,0.1085,0.1109,0.1103,0.1103,0.1097,0.1087,0.1079,0.1188,0.1189,0.1189,0,0,0.086,0.088,0.0868,0.0887,0.0915,0.0944,0.0941,0.0978,0.0994,0.0989,0.1032,0.1034,0.1042,0.1059,0.1068,0.1008,0.104,0.1009,0.0965,0.0956,0.0948,0.0941,0.0923,0.0915,0.1005,0.1005,0.1004,0,0.0808,0.0813,0.0857,0.0854,0.0864,0.0917,0.0905,0.092,0.0949,0.0954,0.0976,0.099,0.101,0.1,0.0986,0.099,0.0989,0.1006,0.0946,0.094,0.0934,0.0917,0.091,0.1001,0.1001,0.1002,0.1002,0,0.075,0.0752,0.0739,0.0769,0.0777,0.0768,0.0811,0.0814,0.0842,0.0868,0.0864,0.0889,0.0905,0.0904,0.0929,0.0898,0.091,0.0937,0.0976,0.092,0.0905,0.0899,0.0995,0.0997,0.0998,0.0999,0,0,0.0635,0.0691,0.0686,0.0701,0.0738,0.074,0.0735,0.0752,0.0755,0.0773,0.0771,0.0778,0.0806,0.0816,0.0844,0.0836,0.0791,0.0866,0.0867,0.0854,0.0761,0.0741,0.0733,0.0812,0.0811,0.081,0.076,0,0.0576,0.0573,0.0613,0.0598,0.0603,0.0654,0.065,0.0671,0.0696,0.0703,0.0729,0.0735,0.0769,0.0776,0.077,0.0798,0.0773,0.0801,0.0811,0.0811,0.0807,0.0725,0.0704,0.0655,0.0754,0.0753,0.0752,0,0.0506,0.0524,0.0511,0.0551,0.0554,0.055,0.0571,0.0576,0.0602,0.062,0.0634,0.0667,0.0665,0.07,0.0699,0.0717,0.0723,0.0738,0.0737,0.0741,0.078,0.0729,0.064,0.0634,0.0742,0.0743,0.0744,0,0.0428,0.0448,0.0444,0.0455,0.0501,0.0497,0.0516,0.0544,0.0552,0.0569,0.0576,0.0591,0.06,0.0611,0.0648,0.067,0.0643,0.0681,0.066,0.0659,0.0654,0.0654,0.0567,0.0653,0.0653,0.0653,0.0653,0,0.0359,0.035,0.041,0.0408,0.0399,0.0445,0.0435,0.0458,0.0483,0.0486,0.0529,0.053,0.0578,0.0585,0.0614,0.061,0.0612,0.0628,0.0636,0.0626,0.0624,0.0632,0.0638,0.0651,0.0651,0.0652,0.0652,0,0.0271,0.0311,0.031,0.0355,0.0366,0.0358,0.0395,0.0395,0.0423,0.0426,0.0429,0.0473,0.0483,0.0521,0.054,0.0559,0.0547,0.0561,0.054,0.0545,0.0524,0.0526,0.0441,0.0433,0.0521,0.052,0.0519,0,0.0226,0.0221,0.0266,0.0272,0.029,0.0298,0.0309,0.0353,0.0362,0.0392,0.0388,0.0403,0.0418,0.0432,0.0465,0.048,0.0496,0.0465,0.0499,0.049,0.0499,0.0501,0.0501,0.0459,0.0457,0.0456,0.0456,0,0.0143,0.0163,0.0177,0.0199,0.021,0.0228,0.0249,0.0251,0.0301,0.0308,0.0321,0.0333,0.0354,0.0369,0.039,0.0408,0.0441,0.0445,0.0441,0.0432,0.0421,0.043,0.0523,0.0447,0.0448,0.0448,0.0449,0.0449,0.0077,0.0076,0.0109,0.0123,0.0144,0.0163,0.0166,0.0196,0.0208,0.023,0.0255,0.0266,0.0293,0.0326,0.0342,0.035,0.0368,0.0362,0.0361,0.036,0.0356,0.0418,0.0354,0.0354,0.0354,0.0355,0.0355,0,-0.0001,0.0023,0.0036,0.0066,0.0077,0.0108,0.0133,0.0141,0.015,0.0174,0.0189,0.0204,0.0219,0.0253,0.0272,0.0272,0.0288,0.0276,0.0277,0.0282,0.0338,0.034,0.0263,0.0263,0.0263,0.0263,0.0263,0.0263,-0.004,-0.0039,-0.0014,-0.0002,0.0022,0.0035,0.0047,0.0065,0.0085,0.0101,0.0115,0.0138,0.0166,0.0187,0.0202,0.0212,0.0218,0.0202,0.0216,0.0268,0.0277,0.0286,0.0289,0.0202,0.0202,0.016,0.016,0.0159]},{"header":{"parameterUnit":"m.s-1","parameterCategory":1,"la1":30.2991,"la2":30.254,"lo1":-89.0895,"lo2":-89.0444,"dy":0.0017,"dx":0.0017,"nx":28,"ny":28,"refTime":"2026-02-17T03:00:00:Z","depth":0,"parameterNumber":3,"parameterNumberName":"V-component_of_WINDS"},"data":[0,0,0,0,0,0,0,0,0,0,0,0,0,0,0,0,0,0,0,0,0,0,0,0,0,0,0,0,0,0,0,0,0,0,0,0,0,0,0,0,0,0,0,0,0,0,0,0,0,0,0,0,0,0,0,0,0,0,2.9753,2.9754,0,2.9857,2.9858,2.9859,2.9962,2.9963,2.9965,2.9966,3.0069,3.0071,3.0072,0,0,0,0,0,0,0,0,0,0,0,0,0,2.9643,2.9644,2.9753,2.9754,2.9756,2.9857,2.9858,2.986,2.9962,2.9963,2.9965,2.9967,3.0069,3.0071,3.0072,0,0,0,0,0,0,0,0,0,0,0,0,0,2.9713,2.9645,2.9753,2.9819,2.9826,2.9857,2.9858,2.986,2.9961,2.9963,2.9966,2.9967,3.0068,3.007,3.0073,3.0045,0,0,3.0079,3.008,0,0,0,0,0,0,0,0,2.9709,2.9717,2.9808,2.9814,2.9822,2.9899,2.9857,2.9922,2.9961,2.991,2.9966,2.9968,3.0011,3.0018,3.0033,3.005,3.0055,3.008,3.0081,3.0082,3.0083,0,0,0,0,0,0,0,2.9704,2.9713,2.9794,2.9809,2.9818,2.9843,2.9855,2.987,2.9947,2.9914,2.9922,2.9933,3.0015,3.003,3.0036,3.0056,3.008,3.0082,3.0083,3.0084,3.0061,3.0059,0,0,0,0,0,0,2.9689,2.9708,2.9791,2.9797,2.9769,2.9843,2.9857,2.9872,2.9948,2.9961,2.9931,2.9938,3.0026,3.0033,3.004,3.0016,3.0082,3.0084,3.0085,3.0063,3.006,3.0058,0,0,0,0,0,0,2.9686,2.9695,2.9787,2.9755,2.9769,2.9843,2.9859,2.9873,2.9889,2.996,2.9975,2.9933,3.0027,3.0037,3.0045,3.0021,3.0085,3.0087,3.0065,3.0062,3.0059,2.9966,0,0,0,0,0,0,2.9683,2.9694,2.9684,2.9754,2.977,2.9789,2.9858,2.9874,2.9892,2.9902,2.9966,2.9978,3.003,3.0041,3.0047,3.0025,3.0089,3.0068,3.0064,3.006,2.9972,2.9961,2.9951,0,0,0,0,0,2.9678,2.9652,2.9683,2.9693,2.976,2.9788,2.9797,2.9858,2.989,2.9882,2.9928,2.9976,3.0022,3.004,3.0048,3.0027,3.0069,3.0065,3.0061,2.9977,2.9963,2.9951,0,0,0,0,0,0,2.9576,2.9663,2.9698,2.9694,2.9733,2.9805,2.9796,2.984,2.987,2.9878,2.9951,2.9964,2.9964,2.9996,3.0015,3.0007,3.0053,3.005,2.9986,2.9974,2.9963,2.9957,3.0091,0,0,0,0,0,2.9553,2.957,2.9644,2.9633,2.9651,2.972,2.9734,2.9778,2.9821,2.9838,2.9885,2.9925,2.9949,2.9963,2.9988,2.9977,2.9994,2.9966,2.9956,2.9947,2.9944,2.9943,2.9933,3.0044,3.0044,3.0044,0,0,2.9506,2.9555,2.9561,2.9614,2.965,2.9666,2.9733,2.9746,2.9759,2.984,2.9851,2.9887,2.9936,2.9935,2.9937,2.9961,2.9917,2.9941,2.9933,2.9936,2.9938,2.9927,2.9918,3.0041,3.0042,3.0042,0,0,2.9429,2.9467,2.9464,2.9499,2.9552,2.9599,2.9598,2.9664,2.9692,2.9704,2.9767,2.9782,2.9821,2.9854,2.9876,2.9814,2.9861,2.982,2.9766,2.9765,2.9756,2.9749,2.973,2.9722,2.9817,2.9816,2.9816,0,2.9363,2.939,2.9456,2.9467,2.9489,2.9565,2.9563,2.9593,2.9652,2.9666,2.9693,2.9746,2.9783,2.9793,2.9778,2.9792,2.9795,2.9814,2.9752,2.9746,2.974,2.9722,2.9715,2.9811,2.9812,2.9813,2.9813,0,2.9308,2.9326,2.9317,2.9374,2.9395,2.9399,2.9466,2.948,2.9522,2.9565,2.9579,2.9627,2.9666,2.9671,2.9711,2.9687,2.9701,2.9739,2.9787,2.9723,2.9708,2.9702,2.9804,2.9806,2.9808,2.9809,0,0,2.9169,2.9265,2.9261,2.9289,2.9355,2.937,2.9377,2.9417,2.9428,2.9466,2.9476,2.9508,2.9545,2.957,2.9615,2.9613,2.9565,2.9652,2.9654,2.9637,2.9545,2.9517,2.9508,2.9595,2.9594,2.9593,2.9542,0,2.9105,2.9126,2.9186,2.9188,2.9207,2.928,2.9287,2.9328,2.9369,2.9391,2.9436,2.9459,2.9504,2.9521,2.9522,2.957,2.9548,2.9574,2.9606,2.9607,2.9594,2.95,2.9471,2.9419,2.9536,2.9535,2.9534,0,2.9033,2.9069,2.9073,2.9141,2.9151,2.9157,2.92,2.9219,2.9267,2.9298,2.9327,2.9377,2.9391,2.9434,2.9455,2.9472,2.9488,2.9514,2.9514,2.9521,2.9568,2.9507,2.9404,2.9397,2.9525,2.9525,2.9526,0,2.8935,2.8984,2.8994,2.9015,2.9094,2.9097,2.9129,2.9181,2.9201,2.9238,2.9252,2.9289,2.931,2.9337,2.9397,2.9423,2.9412,2.946,2.9439,2.9437,2.9435,2.9434,2.9336,2.9441,2.9441,2.9441,2.9441,0,2.8859,2.8859,2.8952,2.8958,2.8961,2.9031,2.9032,2.9072,2.9117,2.9133,2.9197,2.921,2.9287,2.9309,2.9356,2.9368,2.9375,2.9401,2.9414,2.9397,2.9394,2.941,2.9417,2.9439,2.944,2.944,2.944,0,2.875,2.8812,2.8828,2.8902,2.8921,2.892,2.8984,2.8993,2.9038,2.9058,2.9066,2.9137,2.9167,2.923,2.9275,2.9307,2.9309,2.933,2.9293,2.9301,2.9278,2.9281,2.9188,2.9181,2.9288,2.9287,2.9286,0,2.8699,2.8701,2.8776,2.8792,2.8823,2.8847,2.887,2.8938,2.8959,2.9016,2.9019,2.9054,2.9087,2.9131,2.9187,2.9223,2.9248,2.9213,2.9253,2.9237,2.9251,2.9251,2.9253,2.9204,2.9203,2.9201,2.92,0,2.8602,2.8633,2.8663,2.8704,2.8729,2.8765,2.8803,2.8812,2.8891,2.8911,2.8943,2.8968,2.9017,2.9052,2.9097,2.9131,2.9179,2.9187,2.9185,2.9169,2.9148,2.9162,2.9271,2.9189,2.919,2.9191,2.9192,2.9192,2.8522,2.8529,2.8584,2.8616,2.8653,2.8689,2.8702,2.875,2.8779,2.8825,2.8863,2.8893,2.8944,2.9011,2.9042,2.9066,2.909,2.9085,2.9085,2.9083,2.9078,2.9142,2.9074,2.9075,2.9075,2.9075,2.9076,0,2.8431,2.8471,2.8499,2.8553,2.8579,2.8622,2.8668,2.8687,2.8713,2.8756,2.8788,2.8826,2.8861,2.892,2.8961,2.8969,2.8992,2.8977,2.8979,2.8987,2.9053,2.9052,2.8958,2.8958,2.8958,2.8958,2.8958,2.8958,2.8387,2.8403,2.844,2.8475,2.8514,2.8545,2.8568,2.8602,2.8638,2.8678,2.8708,2.8747,2.8798,2.8843,2.8877,2.8894,2.8907,2.8885,2.8909,2.897,2.8981,2.8992,2.8992,2.8887,2.8887,2.8842,2.8841,2.8841]}]]